Weather History for Santa Maria, CA

Change the Weather History Date:

Thursday, October 23, 2014

  Actual Average Record
Temperature  
Mean Temperature 66 °F 60 °F  
Max Temperature 80 °F 73 °F 98 °F (1959)
Min Temperature 52 °F 48 °F 36 °F (1961)
Degree Days  
Heating Degree Days 0 5  
Month to date heating degree days 2 100  
Since 1 July heating degree days 3 317  
Cooling Degree Days 1 0  
Month to date cooling degree days 110 21  
Year to date cooling degree days 547 103  
Growing Degree Days 16 (Base 50)    
Moisture  
Dew Point 50 °F    
Average Humidity 56    
Maximum Humidity 83    
Minimum Humidity 28    
Precipitation  
Precipitation 0.00 in 0.03 in 0.19 in (1973)
Month to date precipitation T 0.35  
Year to date precipitation 4.01 10.25  
Since 1 July precipitation T 0.54  
Sea Level Pressure  
Sea Level Pressure 29.98 in    
Wind  
Wind Speed 5 mph (West)    
Max Wind Speed 14 mph    
Max Gust Speed 16 mph    
Visibility 10 miles    
Events      
T = Trace of Precipitation, MM = Missing Value Source: NWS Daily Summary

Daily Weather History Graph

Daily Weather History Graph

Search for Another Location

Airport:

Trip Planner

Search our weather history database for the weather conditions in past years. The results will help you decide how hot, cold, wet, or windy it might be!

Date:

Astronomy

Oct. 23, 2014 Rise Set
Actual Time 7:14 AM PDT 6:17 PM PDT
Civil Twilight 6:48 AM PDT 6:42 PM PDT
Nautical Twilight 6:19 AM PDT 7:12 PM PDT
Astronomical Twilight 5:49 AM PDT 7:41 PM PDT
Moon 6:59 AM PDT (10/23) 6:22 PM PDT (10/23)
Length of Visible Light 11h 54m
Length of Day
11h 02m
Waning Crescent, 0% of the Moon is Illuminated
Oct 23
Waning Crescent
Oct 23
New
Oct 30
First Quarter
Nov 6
Full
Nov 14
Last Quarter

Hourly Weather History & Observations

Time (PDT) Temp. Dew Point Humidity Pressure Visibility Wind Dir Wind Speed Gust Speed Precip Events Conditions
12:51 AM 57.9 °F 48.9 °F 72% 29.98 in 10.0 mi North - - N/A   Clear
1:51 AM 55.9 °F 48.9 °F 77% 29.99 in 10.0 mi SE 3.5 mph - N/A   Clear
2:51 AM 55.0 °F 46.9 °F 74% 29.97 in 10.0 mi SE 3.5 mph - N/A   Clear
3:51 AM 54.0 °F 46.9 °F 77% 29.96 in 10.0 mi SE 4.6 mph - N/A   Clear
4:51 AM 54.0 °F 46.9 °F 77% 29.96 in 10.0 mi North - - N/A   Clear
5:51 AM 52.0 °F 46.0 °F 80% 29.99 in 10.0 mi SE 3.5 mph - N/A   Clear
6:51 AM 52.0 °F 45.0 °F 77% 29.99 in 10.0 mi South 5.8 mph - N/A   Clear
7:51 AM 55.0 °F 46.9 °F 74% 30.01 in 10.0 mi East 4.6 mph - N/A   Clear
8:51 AM 61.0 °F 48.9 °F 64% 30.04 in 10.0 mi WSW 3.5 mph - N/A   Clear
9:51 AM 68.0 °F 46.9 °F 47% 30.04 in 10.0 mi Calm Calm - N/A   Clear
10:51 AM 73.9 °F 42.1 °F 32% 30.03 in 10.0 mi Calm Calm - N/A   Partly Cloudy
11:51 AM 78.1 °F 43.0 °F 29% 30.02 in 10.0 mi West 4.6 mph - N/A   Partly Cloudy
12:51 PM 80.1 °F 50.0 °F 35% 30.00 in 10.0 mi WNW 10.4 mph - N/A   Clear
1:51 PM 78.1 °F 52.0 °F 40% 29.98 in 10.0 mi WNW 10.4 mph - N/A   Clear
2:51 PM 75.9 °F 53.1 °F 45% 29.97 in 10.0 mi WNW 11.5 mph - N/A   Clear
3:51 PM 73.9 °F 55.0 °F 52% 29.96 in 10.0 mi NW 11.5 mph - N/A   Clear
4:51 PM 73.0 °F 55.9 °F 55% 29.96 in 10.0 mi NW 8.1 mph - N/A   Clear
5:51 PM 69.1 °F 57.0 °F 65% 29.95 in 10.0 mi NNW 6.9 mph - N/A   Clear
6:51 PM 64.9 °F 55.9 °F 73% 29.95 in 10.0 mi North 5.8 mph - N/A   Clear
7:51 PM 64.0 °F 57.0 °F 78% 29.96 in 9.0 mi Calm Calm - N/A   Clear
8:51 PM 60.1 °F 53.1 °F 78% 29.96 in 10.0 mi North - - N/A   Clear
9:51 PM 61.0 °F 53.1 °F 75% 29.97 in 10.0 mi Calm Calm - N/A   Clear
10:51 PM 57.9 °F 48.9 °F 72% 29.98 in 10.0 mi SSE 3.5 mph - N/A   Clear
11:51 PM 57.0 °F 48.9 °F 74% 29.98 in 9.0 mi North - - N/A   Clear